カタログに戻る

COSMOS 1828

運用中軍事PO
NORAD 17583·PAYLOAD·🇷🇺 Russia

打ち上げ Mar 13, 1987 から Plesetsk Cosmodrome

Loading…

次のパス (今後24時間)

TLE

最新Source: Space-Track

元期: Sep 14, 2026, 20:38 UTC

1 17583U 87026B   26257.85979939  .00000013  00000-0  14383-4 0  9995
2 17583  82.5627 108.2650 0018127 225.4930 164.7742 12.66270579825890

AllMySatでCOSMOS 1828をリアルタイム追跡

Download on the App Store